Starlink 5303

operational
NORAD ID: 55630 Int'l Des: 2023-021 Owner: SPXS Country: US Constellation: starlink
LEOCIRCULAR

关于 Starlink 5303

正在加载描述...

实时位置

正在加载3D地球...

即将过境

高度历史

Altitude vs Time

uPlot chart will show altitude changes over time

两行轨道根数

1 55630U 23021C 25352.66667824 .00010213 00000-0 86232-3 0 9990
2 55630 70.0019 48.8056 0003362 271.1043 327.0846 14.98336777 5720
Epoch: Dec 18, 2025 • Age: 6 hours

当前状态

高度 582.2 km
速度 7.57 km/s
星下点 53.49°N, 142.81°E
发射日期 Feb 17, 2023
运行时间 2.8 years
类型 internet

技术详情

分类 Payload
质量 305.00 kg
干质量 290.00 kg
总质量 305.00 kg
长度 0.20 m
直径 2.80 m
跨度 9.00 m
形状 Box + pan
制造商 SPXS
平台类型 Starlink
阶段状态 In Orbit
所有者/国家 SPXS/US

大型星座

Loading constellations...